Location: Apollinopolis Magna
(24.9792°N, 32.8772°E)
Time: 19:07:07
(UTC+00:00)

Cosmos 1470 Rocket - Pass Details

Date: 02 March 2021
Orbit: 602 x 635 km, 82.5° (Epoch: 09 April)

Event Time Altitude Azimuth Distance (km) Brightness Sun altitude
Rises 16:34:51 0° 183° (S) 2,914 7.1 -10.7°
Reaches altitude 10° 16:37:04 10° 183° (S) 2,010 6.3 -11.2°
Maximum altitude 16:41:32 87° 93° (E) 638 3.6 -12.2°
Drops below altitude 10° 16:46:01 10° 6° (N) 2,013 6.1 -13.2°
Sets 16:48:15 0° 6° (N) 2,920 6.9 -13.7°
